Location: Unspecified
(38.9820°N, 94.4650°W)
Time: 06:14:42
(UTC-05:00)

Resurs 1-4 Rocket - Visible Passes

Search period start: 26 March 2017 00:00
Search period end: 05 April 2017 00:00
Orbit: 800 x 814 km, 98.5° (Epoch: 24 March)

Date Brightness Start Highest point End Pass type
(mag) Time Alt. Az. Time Alt. Az. Time Alt. Az.
26 Mar 4.6 03:06:53 10° NNE 03:08:11 17° NE 03:08:11 17° NE visible
26 Mar 3.8 04:46:59 10° N 04:49:17 21° NNW 04:49:17 21° NNW visible
27 Mar 4.9 02:43:03 10° NE 02:43:27 12° NE 02:43:27 12° NE visible
27 Mar 3.6 04:21:59 10° N 04:24:32 27° NNW 04:24:32 27° NNW visible
28 Mar 3.6 03:57:15 10° N 03:59:48 29° N 03:59:48 29° N visible
29 Mar 3.9 03:32:44 10° NNE 03:35:04 26° NNE 03:35:04 26° NNE visible
29 Mar 4.0 05:14:06 10° NNW 05:16:09 15° NW 05:16:09 15° NW visible
30 Mar 4.4 03:08:28 10° NNE 03:10:19 20° NE 03:10:19 20° NE visible
30 Mar 3.6 04:48:39 10° NNW 04:51:25 23° NW 04:51:25 23° NW visible
31 Mar 4.8 02:44:35 10° NE 02:45:34 14° NE 02:45:34 14° NE visible
31 Mar 3.3 04:23:38 10° N 04:26:40 31° NNW 04:26:40 31° NNW visible
01 Apr 3.3 03:58:52 10° N 04:01:56 36° N 04:01:56 36° N visible
02 Apr 3.6 03:34:20 10° NNE 03:37:12 32° NNE 03:37:12 32° NNE visible
02 Apr 3.9 05:15:50 10° NNW 05:18:17 15° NW 05:18:17 15° NW visible
03 Apr 4.1 03:10:03 10° NNE 03:12:27 24° NE 03:12:27 24° NE visible
03 Apr 3.5 04:50:19 10° NNW 04:53:32 24° NW 04:53:32 24° NW visible
04 Apr 4.6 02:46:08 10° NE 02:47:42 16° ENE 02:47:42 16° ENE visible
04 Apr 3.1 04:25:16 10° N 04:28:48 34° NW 04:28:48 34° NW visible
